Location: *
(46.1200°N, 11.2700°E)
Time: 19:01:52
(UTC+00:00)

Cosmos 1515 - Pass Details

Date: 02 March 2021
Orbit: 504 x 516 km, 82.5° (Epoch: 18 April)

Event Time Altitude Azimuth Distance (km) Brightness Sun altitude
Rises 18:10:53 0° 349° (N) 2,647 7.5 -12.6°
Reaches altitude 10° 18:13:02 10° 349° (NNW) 1,754 6.6 -13.0°
Maximum altitude 18:16:53 79° 264° (W) 531 3.8 -13.6°
Drops below altitude 10° 18:20:41 10° 177° (S) 1,733 6.3 -14.3°
Sets 18:22:47 0° 176° (S) 2,612 7.2 -14.6°
